Location: ???????????
(55.5758°N, 38.4970°E)
Time: 18:32:33
(UTC+00:00)

SMAP - Pass Details

Date: 15 November 2025
Orbit: 681 x 683 km, 98.1° (Epoch: 14 December)

Event Time Altitude Azimuth Distance (km) Brightness Sun altitude
Rises 03:34:57 0° 18° (NNE) 3,061 6.5 -11.8°
Reaches altitude 10° 03:37:15 10° 23° (NNE) 2,140 5.7 -11.5°
Maximum altitude 03:41:49 51° 100° (E) 857 4.1 -10.9°
Drops below altitude 10° 03:46:22 10° 177° (S) 2,123 5.9 -10.3°
Sets 03:48:39 0° 182° (S) 3,034 6.6 -10.0°
